Theta_e
302 300 297 296 299 300 300 300 298 296 298 297 298 297 295 295 296 296 296 296 295 296 298 299 299 299 300 302 303 305 305 302 301 301 302 303 304 305 305 305 307 307 307 313 309 308 307 307 307 307 308 309 310 312 313 314 315 315 315 316 316 317 318 317 316 315 315 314 314 316 315 315 315 315 313 312 312 313 317 317 319 321 321 319 319 319
301 298 298 301 298 299 298 296 296 296 297 297 296 296 295 295 294 297 297 295 297 296 297 297 296 298 299 301 302 304 303 301 302 302 303 304 304 305 306 307 307 308 310 310 306 305 306 306 307 307 307 307 308 310 312 313 314 315 315 315 316 317 317 316 316 316 316 317 316 316 315 318 314 312 314 311 310 311 310 313 316 316 317 317 319 316
298 296 299 298 297 296 296 296 297 298 296 297 296 296 294 296 298 295 294 295 296 295 296 297 295 297 300 301 303 303 302 304 305 305 305 305 305 306 307 307 307 307 308 308 307 306 304 306 306 306 306 308 309 310 311 313 314 314 314 315 316 316 316 316 316 315 315 317 318 318 315 312 309 309 310 314 311 308 307 307 310 312 314 316 315 317
294 298 299 297 297 297 294 295 296 297 297 296 296 294 293 296 293 292 295 294 294 295 296 295 294 296 300 301 302 304 303 303 305 305 305 306 305 305 306 307 308 308 308 308 308 306 304 305 305 305 306 307 308 310 311 312 313 314 314 314 315 315 315 316 316 315 317 318 313 311 313 313 309 307 304 305 305 306 304 304 305 309 311 311 311 312
295 297 293 295 297 298 295 294 296 296 295 297 298 297 295 294 295 294 294 294 294 294 293 294 294 296 300 299 301 303 301 301 302 302 303 304 305 306 307 307 307 306 307 308 308 307 304 303 303 304 305 307 307 309 311 312 312 312 313 314 315 315 314 315 315 316 314 308 306 305 304 303 303 303 303 303 303 303 303 302 302 306 308 309 310 310
297 295 296 296 296 296 296 294 296 298 294 296 297 297 297 297 295 293 294 295 295 295 294 293 290 293 298 297 298 301 302 301 302 302 303 305 306 306 304 305 306 307 307 306 306 307 306 304 304 304 305 305 307 308 310 312 313 313 313 314 315 314 314 314 315 314 311 307 303 304 304 303 306 302 302 304 304 301 301 302 303 303 304 306 308 309
297 293 297 296 296 296 296 296 297 298 295 294 295 297 298 296 295 295 294 295 290 289 293 292 288 287 296 296 298 300 300 300 303 303 303 304 305 306 306 307 306 306 307 307 306 305 305 305 304 304 304 305 306 307 310 312 312 313 313 314 314 313 313 313 314 311 309 307 305 307 309 310 309 308 306 308 308 305 305 306 303 303 302 304 305 306
295 293 295 297 296 296 295 293 296 296 296 292 294 293 295 295 294 296 295 295 293 294 295 291 294 288 289 295 300 300 299 299 301 302 303 304 305 305 305 306 306 307 306 306 306 306 305 305 304 304 304 305 306 308 310 311 311 312 312 313 313 313 312 313 310 309 308 308 308 311 311 312 313 313 309 307 307 307 306 303 301 301 301 300 300 302
296 294 295 294 296 295 295 297 298 298 296 294 292 295 295 295 296 295 295 294 293 290 290 291 296 288 289 295 296 295 295 298 300 302 304 305 307 306 306 306 306 306 306 306 306 306 305 304 304 304 304 305 306 307 309 309 310 311 312 312 313 312 312 312 309 308 308 309 310 311 311 311 314 315 312 309 305 302 301 301 298 297 296 296 297 297
293 297 297 298 296 294 296 291 294 298 295 292 292 295 294 295 295 296 294 294 292 290 287 290 293 287 288 296 296 295 295 296 298 302 303 305 305 306 305 305 304 303 304 304 303 304 305 304 304 304 304 305 305 307 309 310 310 311 312 311 312 312 311 310 309 308 309 309 309 310 312 311 312 311 307 307 303 302 299 298 296 296 295 295 295 294
293 295 296 297 296 297 293 292 292 295 294 295 297 298 296 295 295 294 294 293 291 286 288 292 293 291 285 294 295 294 297 299 301 302 303 304 305 304 302 303 305 303 302 303 302 302 301 301 301 302 302 303 304 306 307 309 310 311 311 311 311 311 311 310 309 308 308 309 309 309 312 312 311 304 302 302 300 300 298 297 295 295 295 295 294 294
295 295 296 298 294 294 297 294 294 293 295 298 298 296 296 293 293 293 291 291 285 284 290 291 292 293 284 290 295 299 297 296 299 301 302 303 304 307 304 304 303 302 302 302 301 301 300 300 299 300 301 302 303 305 306 308 309 309 310 310 310 310 310 309 308 307 307 308 309 309 310 311 308 303 302 301 300 298 297 297 295 294 294 294 294 294
292 295 296 295 296 296 298 296 294 295 295 297 297 295 288 287 286 284 287 283 284 284 287 288 289 288 287 292 296 298 299 301 301 301 302 304 304 305 303 304 304 304 302 303 304 303 301 301 301 300 301 302 303 304 305 307 308 309 309 309 309 309 310 308 307 306 307 306 306 307 309 309 306 306 304 301 300 298 298 297 296 294 293 293 292 291
292 295 294 296 295 296 299 293 291 290 294 295 294 291 287 283 282 280 283 282 282 285 284 287 291 286 293 295 299 299 301 303 303 302 302 302 303 304 305 304 302 305 303 304 304 303 303 303 302 302 302 302 303 304 305 306 307 308 308 308 308 308 309 308 307 306 306 306 305 306 307 307 305 304 304 303 303 299 301 298 296 295 296 294 292 291
285 285 291 294 292 299 297 297 297 295 294 295 300 295 290 288 284 279 281 280 283 285 284 287 286 286 287 293 297 299 300 299 299 301 304 304 303 304 304 303 303 303 303 303 302 303 304 303 302 302 302 302 303 304 305 306 307 308 307 308 307 308 308 307 307 306 306 307 306 306 306 306 303 303 303 303 305 301 302 300 298 298 298 295 295 293
289 289 293 298 297 298 296 300 300 298 296 296 296 297 290 288 293 285 286 285 282 284 283 282 285 292 293 297 299 299 299 299 299 299 300 300 302 303 302 303 302 302 302 303 302 303 302 302 301 301 302 302 303 304 305 306 307 307 307 308 308 308 308 307 306 306 306 306 306 307 307 305 303 302 302 303 302 302 302 302 301 299 297 297 296 295
287 287 291 295 294 297 297 296 297 298 287 293 293 289 292 295 293 286 282 282 282 283 282 289 287 291 296 296 298 299 300 300 300 300 300 301 302 302 302 303 303 303 304 304 303 303 304 302 300 301 301 302 302 304 305 306 307 307 307 307 308 308 307 307 306 306 305 306 305 304 304 304 302 301 299 300 300 299 300 300 299 301 300 300 297 295
289 289 289 293 291 293 291 294 297 295 297 293 288 293 294 297 297 290 284 284 283 281 283 286 285 287 289 286 295 296 296 298 300 300 302 303 303 302 303 305 304 304 304 304 304 303 303 302 301 300 300 301 302 303 305 305 307 308 308 308 307 307 306 306 306 305 305 305 304 303 302 301 300 300 299 298 297 298 298 298 298 298 300 298 297 292
294 287 290 289 291 294 293 296 295 296 296 295 293 301 292 286 285 290 286 280 280 279 282 286 287 287 290 290 295 295 296 298 299 301 301 301 301 302 304 306 303 304 303 302 300 300 300 299 299 299 299 300 302 303 305 306 307 307 307 308 308 307 307 306 306 305 305 305 304 302 301 299 298 298 298 298 297 297 297 296 295 296 298 297 293 290
295 287 288 289 291 293 294 295 288 292 295 296 296 293 296 292 290 287 287 286 286 282 280 283 285 285 294 293 295 296 298 299 300 301 300 301 301 303 304 305 304 305 305 304 303 302 302 300 299 299 299 299 300 301 303 305 306 306 306 306 307 307 307 306 305 304 304 304 304 303 302 300 298 297 297 297 296 294 294 295 295 295 294 293 290 289
291 293 285 290 292 292 289 292 291 293 289 290 292 291 292 290 293 292 290 286 285 283 282 282 281 287 294 297 297 297 298 300 300 300 303 304 305 303 303 304 304 304 304 303 303 303 301 300 298 298 299 299 300 301 302 304 304 305 306 306 306 306 306 305 305 304 303 303 302 300 298 298 298 297 298 297 295 294 293 293 293 293 292 289 289 289
289 289 286 289 288 288 292 296 295 297 296 293 292 291 292 289 286 284 283 289 285 285 281 281 281 288 296 294 298 299 300 300 301 301 303 306 304 303 306 303 302 303 302 302 302 301 300 298 297 297 297 298 298 299 300 302 303 304 304 305 305 305 305 305 304 302 302 302 300 299 299 297 296 296 295 293 292 292 292 291 291 291 290 289 289 287
296 294 289 286 289 291 293 291 290 290 294 295 295 293 296 294 292 288 282 284 284 286 286 285 282 286 298 296 299 300 298 298 299 299 300 301 302 303 303 303 301 300 301 301 300 299 298 298 297 297 296 297 297 298 299 300 302 303 304 304 305 304 304 305 304 303 303 302 300 299 298 297 294 293 293 292 291 290 290 290 290 290 288 289 288 287
293 288 286 288 292 292 292 291 292 291 294 293 293 293 293 291 293 291 289 288 287 287 284 285 281 287 296 295 296 295 295 296 296 297 300 301 302 301 301 303 303 302 301 299 298 297 296 296 296 295 295 296 297 297 298 299 301 302 303 304 304 303 303 303 304 303 302 301 300 299 298 296 294 293 292 291 291 289 289 288 288 288 287 288 288 286
289 289 289 286 285 287 288 292 292 293 293 292 292 293 294 295 295 292 287 287 286 288 288 286 281 287 298 292 294 294 294 296 298 298 297 299 301 302 302 302 301 300 300 299 298 297 296 295 294 296 297 297 297 297 298 298 299 301 302 303 302 302 303 302 302 301 300 300 298 297 296 295 294 293 292 291 290 288 288 287 287 287 287 287 285 285
290 289 287 282 280 279 278 280 283 286 288 291 293 294 294 293 293 289 286 287 283 288 289 286 286 292 296 296 297 296 296 297 299 299 298 299 300 302 305 304 302 300 301 300 299 297 296 297 296 296 296 297 297 297 297 298 298 299 301 302 302 302 301 301 300 299 298 297 296 295 294 293 292 292 291 290 288 287 287 286 286 287 288 287 284 284
287 289 290 288 286 285 288 290 293 295 291 287 290 291 292 293 294 293 291 288 285 288 287 289 290 291 294 296 296 298 295 297 299 299 300 301 302 302 300 301 300 301 301 300 300 300 298 296 297 297 297 296 296 297 297 297 297 298 299 300 301 301 301 300 298 297 296 296 295 294 293 292 291 291 290 289 288 288 287 286 286 286 286 285 283 283
288 288 290 291 291 292 294 294 294 295 291 291 291 290 292 291 291 289 288 286 292 288 284 291 293 289 291 295 297 298 298 299 299 300 300 299 301 304 303 301 297 298 298 297 296 297 298 301 301 298 297 295 295 296 296 296 297 297 298 298 300 300 300 299 297 296 295 295 294 294 293 292 292 291 291 290 288 287 286 285 285 285 285 284 283 283
289 287 291 292 290 293 294 294 294 294 294 294 293 293 291 292 290 287 288 292 293 288 286 292 294 291 293 296 298 299 299 299 301 302 303 302 299 299 299 300 302 303 302 300 299 300 299 300 301 300 297 295 295 295 295 295 296 296 297 298 299 299 299 299 296 295 295 294 293 293 293 292 291 291 291 289 288 287 285 285 284 284 284 284 284 284
293 288 291 293 290 292 293 294 295 292 292 292 292 294 294 292 291 291 291 293 293 292 294 294 294 294 297 298 299 300 302 301 302 303 300 299 300 302 302 302 302 303 302 302 302 301 300 299 299 299 297 295 294 294 294 295 295 295 296 296 297 298 299 298 296 295 294 293 293 293 292 291 289 289 289 288 287 286 285 284 283 284 284 283 283 283
292 288 293 291 287 288 292 293 294 293 292 289 292 292 293 293 293 293 293 293 294 293 294 294 293 292 298 301 300 302 302 302 302 300 300 302 303 302 302 303 305 305 305 304 303 302 302 300 298 297 296 295 295 295 295 295 295 295 295 296 296 297 297 298 296 294 294 293 293 293 292 290 289 288 287 288 287 286 285 284 283 283 284 283 283 283
291 288 292 289 286 286 290 290 292 291 289 288 288 290 291 291 289 291 290 293 292 290 292 292 289 291 297 301 301 301 301 299 299 300 301 302 302 302 302 303 304 306 306 306 306 305 304 302 299 297 296 297 296 295 295 294 294 294 294 295 295 296 296 296 295 295 294 294 293 292 291 289 288 287 286 286 286 285 285 284 284 284 284 283 282 283
289 289 288 288 285 285 290 291 289 286 286 284 285 289 292 292 293 293 294 295 294 295 291 288 289 296 299 300 298 298 300 299 299 300 301 302 304 304 303 304 305 305 306 306 307 307 307 307 305 303 301 300 298 296 296 295 294 293 294 294 295 295 294 294 295 295 294 294 293 292 290 289 287 287 286 286 285 285 284 284 284 284 283 282 283 283
290 290 289 290 284 286 288 288 288 285 279 280 293 296 295 293 293 291 291 292 294 295 293 296 297 299 300 299 298 299 298 298 300 302 304 304 303 303 303 304 304 305 306 306 307 307 307 308 306 304 303 302 301 298 297 295 294 295 295 294 294 294 294 293 293 294 294 293 291 290 289 288 287 286 286 286 285 284 284 284 284 284 284 283 283 282
287 288 288 289 285 285 288 287 284 277 280 291 296 298 298 297 296 294 294 295 296 296 296 295 296 297 298 300 300 301 302 302 302 302 303 303 304 304 304 304 304 304 304 305 306 306 306 305 305 304 301 300 298 297 295 294 294 294 294 293 293 293 292 292 293 293 293 292 291 290 289 288 287 286 286 285 285 284 284 284 284 283 283 283 283 282
288 287 289 287 287 288 286 285 277 279 288 294 296 296 298 298 297 296 293 296 297 297 297 295 296 298 299 299 301 302 301 301 301 302 301 302 304 304 303 303 305 305 304 305 305 305 305 304 304 303 302 299 297 295 295 294 294 293 292 293 292 291 292 291 291 292 291 290 289 289 288 287 287 286 285 285 284 284 284 283 283 283 283 283 283 283
293 291 288 285 288 282 284 284 284 290 288 290 293 292 293 292 293 292 288 292 297 298 298 297 298 298 299 300 301 301 301 298 298 300 302 300 301 302 303 304 305 305 306 305 305 305 304 303 300 299 298 296 295 294 293 293 292 292 291 290 291 290 290 290 290 290 290 289 289 288 288 287 287 286 285 285 284 283 284 283 283 283 283 283 283 282
296 289 290 285 284 287 284 282 284 283 280 287 294 298 300 299 299 300 294 290 299 299 300 299 298 298 299 300 300 299 298 296 294 297 302 303 302 302 302 303 303 304 304 303 300 298 296 295 293 292 294 293 292 292 292 291 291 290 289 289 289 289 289 289 289 289 289 288 288 288 287 287 287 285 285 284 284 284 284 284 284 283 283 283 282 282
295 295 291 287 285 286 283 281 281 280 283 293 293 296 298 298 300 298 291 287 296 298 300 300 298 299 299 299 299 297 294 291 292 297 302 303 302 302 301 302 302 302 301 298 297 297 295 294 292 291 290 291 290 289 290 290 289 289 288 288 288 288 288 288 289 288 288 288 288 287 287 287 286 285 285 285 284 284 283 283 284 283 283 283 282 281
289 289 289 285 283 285 284 282 280 286 286 293 296 296 296 298 301 294 283 284 296 299 299 299 298 299 299 299 296 293 293 290 293 299 302 301 301 301 301 301 301 296 293 290 289 291 291 289 289 289 289 289 289 288 289 289 289 287 287 287 288 287 287 288 288 289 289 288 286 286 286 286 285 285 285 284 284 284 284 284 283 282 283 282 282 280
286 287 287 283 285 284 285 283 286 287 290 293 293 293 294 299 296 286 281 290 295 297 298 299 299 299 298 297 295 292 295 299 301 302 292 292 293 291 289 288 290 291 292 290 289 286 288 288 290 290 289 288 287 287 288 288 287 286 286 286 286 286 287 288 288 288 287 287 286 286 286 286 285 285 285 285 284 284 284 283 282 282 281 281 281 280
286 286 286 287 284 283 285 282 283 288 291 292 294 294 296 293 286 285 295 294 294 295 294 298 297 298 298 298 296 297 299 300 300 300 293 292 294 292 289 287 287 286 286 286 286 287 287 287 286 286 286 286 287 287 287 287 286 286 286 286 286 287 287 287 287 287 286 285 285 285 285 285 285 285 285 284 284 283 283 283 282 282 281 281 281 279
286 284 283 284 286 286 285 282 281 278 289 297 294 291 292 290 291 299 295 291 293 293 294 294 296 298 298 297 298 298 299 300 298 297 296 291 290 290 288 287 288 288 287 286 286 286 287 286 285 285 285 286 286 287 287 286 285 284 285 285 285 286 286 286 286 286 285 285 284 284 284 284 284 284 284 284 284 283 282 282 282 282 281 280 280 279
290 285 285 287 290 283 284 280 281 288 290 294 296 291 294 296 295 291 294 294 291 290 292 294 294 296 297 297 297 297 298 299 297 291 289 288 287 287 287 287 287 287 287 286 286 286 286 285 285 284 284 285 286 286 286 285 284 284 284 285 285 285 285 285 285 285 284 283 283 283 283 283 283 284 284 284 283 283 282 281 281 281 281 280 280 279
290 288 289 287 291 288 285 288 289 289 292 294 293 293 294 296 293 292 293 293 293 294 291 293 295 296 296 295 296 296 296 296 296 294 292 291 287 287 287 287 287 287 286 285 284 284 285 285 284 284 284 284 284 285 285 285 284 283 283 284 285 284 284 284 283 283 283 283 283 283 283 284 284 284 284 284 283 282 281 281 281 280 280 280 280 280
289 291 286 286 286 288 289 289 290 292 292 292 294 294 294 295 295 288 290 293 295 296 293 295 296 295 293 292 293 294 294 295 293 289 288 287 286 285 285 285 284 285 284 284 283 283 284 284 283 283 283 283 284 284 284 284 284 283 283 284 284 284 284 283 283 283 282 282 283 283 283 283 283 283 283 284 284 283 282 281 281 281 281 281 281 280
290 292 287 286 289 286 282 290 290 291 293 293 293 295 294 292 293 291 289 291 292 295 293 292 292 292 291 290 292 294 295 292 290 289 287 286 285 285 284 284 284 283 283 282 283 282 283 283 282 282 282 281 281 282 283 283 284 284 284 283 284 284 283 283 283 282 282 282 282 282 283 282 283 283 283 283 284 283 283 283 283 282 281 282 281 281
286 292 288 288 288 287 287 292 293 291 292 290 290 291 292 293 292 289 289 290 289 286 285 286 288 288 289 289 290 291 293 290 288 287 286 285 284 283 283 283 282 282 282 282 282 283 283 283 282 281 280 279 279 280 280 281 282 283 283 283 284 283 283 283 282 282 282 282 282 282 283 282 278 281 282 283 283 282 282 282 282 281 280 280 280 279
286 289 283 288 287 290 293 293 293 293 292 292 292 291 291 292 292 292 291 289 288 287 288 288 286 288 289 290 291 290 290 288 287 286 285 284 283 283 282 282 282 282 281 281 281 282 282 281 280 279 278 277 277 277 277 277 279 281 282 283 283 283 283 282 281 281 281 282 282 282 281 281 281 282 281 281 280 280 281 281 281 280 279 278 281 281
287 284 287 287 283 283 286 290 294 288 288 292 293 294 294 293 291 291 292 290 287 286 287 288 288 286 286 287 288 289 289 287 285 285 284 283 283 283 282 281 281 281 281 281 281 281 280 279 278 276 275 275 275 276 276 276 277 279 281 282 283 282 281 280 280 280 280 280 280 280 280 280 280 280 279 278 277 277 277 277 280 280 279 277 278 279
284 285 285 282 282 281 288 292 294 293 293 294 295 296 295 293 291 291 291 292 292 290 289 288 288 287 285 285 287 287 288 287 285 285 284 283 283 282 282 281 280 280 279 280 279 278 278 277 276 275 274 274 275 275 274 275 275 276 278 280 281 281 280 280 280 279 279 279 279 279 279 279 279 278 278 278 278 278 277 277 278 279 279 279 279 279
Wind_Speed
3 5 6 7 9 9 7 2 5 4 5 8 5 3 1 4 5 2 1 2 1 3 11 12 13 16 16 15 16 15 8 7 11 13 12 12 11 12 12 12 12 12 14 2 3 6 8 8 8 9 9 10 11 11 12 13 14 14 12 11 12 10 10 9 10 11 11 9 7 6 9 8 7 5 4 4 3 3 4 6 5 7 8 7 7 9
2 5 8 6 6 2 4 6 8 7 3 4 3 2 3 3 5 3 2 2 1 3 3 3 8 15 15 14 15 14 11 17 15 14 15 15 14 12 14 15 14 13 5 4 6 7 7 7 9 9 9 11 13 14 14 15 15 13 13 12 11 10 10 11 12 11 11 11 10 8 9 8 6 5 6 5 4 4 2 4 5 5 7 8 9 7
5 8 3 6 6 7 7 4 2 3 4 3 3 2 3 5 5 1 3 1 1 1 10 5 9 15 14 15 15 15 16 16 14 14 16 14 14 14 14 14 14 9 11 9 11 8 8 8 9 9 9 10 13 12 14 13 12 13 12 11 11 10 11 11 12 12 11 10 10 8 6 5 4 1 0 4 4 4 3 3 3 4 4 7 7 10
4 7 1 7 6 9 4 3 5 4 2 3 3 3 6 2 1 2 3 3 2 4 5 5 9 15 17 17 19 19 17 17 16 15 15 13 16 19 18 13 9 11 12 13 12 10 9 9 9 8 9 11 11 10 11 12 14 12 12 12 12 11 11 10 13 11 11 8 4 4 5 5 3 3 3 3 4 4 3 5 2 4 4 5 6 7
5 3 2 4 4 7 7 4 7 5 6 3 5 5 5 2 4 4 2 2 2 2 2 9 10 12 12 12 10 4 1 7 11 9 12 15 16 17 13 11 13 17 15 12 11 8 9 10 11 12 10 9 10 11 13 13 14 11 14 13 13 10 11 10 12 14 8 7 6 5 6 6 5 4 3 4 3 4 4 3 4 6 4 4 5 7
4 3 6 6 4 3 7 5 8 7 6 4 6 10 8 2 1 0 2 6 4 3 3 2 6 5 1 7 11 10 6 8 7 7 11 14 12 10 12 15 13 12 14 14 13 9 8 10 9 10 11 12 11 13 13 12 12 10 10 12 12 10 10 12 15 13 9 8 8 8 8 8 9 7 8 10 10 7 7 6 3 2 3 4 5 6
1 2 4 7 7 4 3 4 3 5 5 3 3 6 11 1 2 1 1 1 3 3 2 3 3 8 6 15 17 7 9 18 7 9 14 16 14 10 11 11 10 10 9 8 10 9 8 9 9 11 12 13 13 12 9 9 11 11 11 12 13 11 10 12 13 12 9 10 9 12 11 10 10 9 6 4 4 6 6 5 6 5 4 3 5 6
5 3 4 4 8 7 6 5 7 12 5 4 2 1 3 5 6 4 3 4 5 2 3 3 4 8 10 15 10 6 13 15 13 13 15 14 12 11 11 10 11 10 9 7 9 9 10 10 11 13 12 11 11 8 9 9 10 12 12 12 13 11 11 12 8 12 10 10 11 11 11 9 9 10 8 8 6 5 4 5 5 4 4 3 2 4
5 7 7 8 5 5 7 2 4 11 6 1 1 1 3 2 2 3 2 1 1 5 6 6 4 5 9 6 2 1 6 9 13 14 13 12 11 9 8 7 7 8 8 7 7 8 8 9 10 9 9 9 9 9 10 11 11 11 12 12 13 12 12 13 12 12 11 10 11 10 9 8 8 8 7 8 6 5 5 6 4 4 3 3 3 2
2 2 7 5 7 7 3 3 2 10 7 1 4 7 7 6 6 2 2 0 1 2 8 7 7 5 17 8 7 2 2 10 13 10 10 9 3 3 4 4 5 5 4 4 6 5 4 5 5 6 5 7 8 8 9 9 10 11 11 13 14 15 12 13 14 12 12 13 9 10 11 8 8 5 5 7 7 7 7 7 6 5 4 4 4 3
1 1 3 3 7 2 6 6 2 4 5 11 6 8 6 5 3 3 3 1 1 6 5 11 11 5 11 3 10 8 7 7 5 4 5 3 4 2 1 2 1 1 2 2 3 3 3 1 2 3 6 6 7 7 9 10 10 11 11 13 14 14 12 13 15 12 13 12 11 10 12 11 9 7 7 7 7 7 8 8 8 6 6 5 5 5
2 2 3 1 3 5 5 8 7 3 4 5 3 3 5 2 2 1 1 0 2 7 5 3 4 6 9 4 3 1 4 5 6 5 7 4 5 2 1 1 1 1 1 1 2 2 2 2 3 3 6 7 8 9 10 10 10 11 12 12 14 14 14 13 12 12 11 12 11 9 11 10 8 9 8 9 11 10 9 8 7 6 5 5 5 5
4 6 2 3 3 4 7 9 5 4 2 2 4 5 4 2 0 3 2 4 7 7 1 4 2 3 19 12 6 9 10 11 10 8 7 7 8 4 2 2 1 2 2 2 1 1 2 3 3 5 6 6 8 9 11 11 11 11 12 14 15 15 15 15 16 13 13 10 10 9 11 8 7 10 9 8 8 8 9 8 7 7 7 5 6 5
3 3 2 4 3 6 8 9 6 3 7 6 10 9 6 4 4 6 3 2 4 1 0 4 1 10 11 12 13 19 21 16 7 10 10 9 11 11 4 3 3 3 3 3 2 2 2 3 3 4 5 6 7 9 10 11 11 11 11 14 15 16 15 15 16 13 15 15 11 10 8 6 7 9 8 7 8 8 8 8 9 9 9 9 9 9
6 5 9 12 6 10 10 13 13 8 13 13 4 10 6 6 4 5 3 5 5 1 3 3 2 7 1 3 2 5 9 7 7 7 6 8 10 12 5 4 6 6 7 4 4 4 4 4 4 4 5 6 7 9 10 10 11 11 12 14 16 16 16 16 17 16 17 15 15 12 9 7 6 7 7 7 7 8 8 7 9 8 6 6 7 7
12 6 3 8 4 13 14 3 5 7 3 3 1 3 1 10 2 8 1 1 1 0 3 3 7 4 7 6 9 4 6 9 5 5 6 10 12 8 11 12 9 9 10 7 7 7 7 6 5 5 6 6 7 9 9 11 11 12 12 13 15 15 14 15 17 17 16 15 13 14 15 10 9 7 6 7 5 6 8 10 8 9 7 7 5 5
4 7 3 1 2 9 5 2 4 3 9 8 6 8 6 5 3 3 2 3 1 1 9 3 8 11 8 16 16 20 15 12 6 7 6 11 8 3 10 11 5 7 8 7 8 9 8 7 7 6 7 6 7 8 10 11 11 12 12 12 13 14 15 16 16 17 15 16 14 11 10 10 10 10 10 9 10 8 9 7 8 8 8 6 5 5
5 1 2 3 7 0 2 3 2 5 2 9 8 8 3 1 4 3 6 2 3 8 6 4 10 15 3 11 6 2 8 13 13 13 15 11 7 8 9 8 4 6 8 8 8 7 5 6 6 6 6 7 8 9 10 11 10 10 10 11 13 14 16 15 15 17 16 16 15 11 9 7 9 9 8 7 8 7 7 7 5 4 5 7 6 5
3 7 3 2 4 2 1 2 1 3 5 2 0 2 7 4 6 4 1 6 5 3 4 6 8 11 10 16 2 5 5 7 10 13 10 10 11 10 12 6 4 6 5 5 6 6 6 7 7 7 8 8 8 9 9 9 10 9 10 11 13 15 14 15 14 15 14 16 10 6 8 9 8 7 7 6 6 6 7 8 6 7 7 4 5 6
2 7 2 2 3 2 1 7 11 8 2 3 1 2 4 2 5 7 6 1 1 7 2 5 4 10 8 8 4 13 12 12 13 6 6 9 9 11 6 4 3 6 7 5 5 5 6 6 7 7 7 8 8 8 8 9 9 11 12 12 13 12 12 14 15 15 16 14 14 8 8 9 8 8 7 7 8 7 6 7 8 8 6 7 5 6
5 2 8 4 3 2 7 8 12 11 11 6 7 7 3 3 4 4 2 4 5 4 4 5 9 9 7 7 7 10 10 8 8 7 5 7 8 2 3 5 5 4 5 5 5 4 4 4 4 5 5 5 5 6 7 8 10 10 11 12 13 14 13 14 15 14 13 12 9 8 9 9 10 10 10 10 8 8 8 6 6 6 5 4 5 7
3 6 9 6 4 8 7 2 4 10 15 14 15 14 16 11 6 6 8 4 0 4 4 2 10 10 8 4 7 8 6 4 6 8 8 10 6 3 3 4 4 5 5 4 4 3 2 2 3 4 4 4 5 7 9 8 9 10 12 11 11 12 12 14 15 12 11 9 7 9 10 10 9 9 7 7 7 7 6 7 7 6 5 8 6 6
6 3 5 6 10 9 3 1 2 4 5 2 4 8 9 10 9 7 11 4 1 4 3 1 4 14 2 6 4 5 1 3 1 3 7 8 9 7 6 4 3 5 6 3 3 2 1 2 3 4 6 7 8 8 9 9 10 10 12 12 11 12 13 12 12 12 13 13 10 11 10 9 8 8 7 9 8 8 7 6 7 6 7 7 7 6
4 2 3 8 3 2 1 1 2 2 1 3 7 1 3 11 11 9 4 2 5 5 4 4 6 12 8 1 1 1 2 4 3 6 8 7 5 4 7 6 3 5 5 4 3 1 0 1 2 4 7 8 8 9 10 9 9 10 10 11 10 12 12 12 11 11 12 12 10 11 11 10 9 10 9 10 8 9 10 8 7 7 6 7 7 8
5 3 6 6 3 1 2 2 3 1 2 5 7 6 8 4 6 2 4 0 3 8 10 8 12 13 0 1 1 3 4 6 7 5 5 8 6 5 6 4 2 4 6 4 2 1 2 3 6 6 6 7 8 9 9 10 10 10 11 11 12 11 12 11 11 10 11 11 12 11 11 11 10 11 11 11 8 8 9 8 8 7 9 9 8 8
3 3 8 8 10 10 9 9 11 9 10 5 3 7 12 14 12 7 7 5 9 7 15 11 13 17 5 3 4 4 5 6 7 6 5 7 6 7 6 6 3 2 4 3 3 3 6 6 5 6 6 6 7 8 9 9 10 10 10 12 11 11 11 11 9 10 11 11 12 12 12 11 10 11 11 11 9 8 9 7 7 8 8 8 7 7
2 1 3 9 11 13 11 1 5 9 6 7 10 12 10 13 14 12 4 8 13 14 14 10 16 20 21 9 5 8 3 7 8 5 6 6 7 7 7 7 2 2 3 5 5 4 3 6 9 7 6 7 8 9 8 9 10 10 10 11 12 11 10 10 10 11 11 12 12 11 12 11 11 10 10 9 9 9 8 9 8 9 9 8 6 7
3 5 12 14 16 17 17 16 3 8 10 13 15 11 12 12 14 13 13 17 16 9 17 14 16 16 24 23 14 8 5 4 5 6 5 6 8 7 4 4 4 5 5 4 6 7 8 7 6 7 8 8 9 9 8 7 9 10 11 11 11 11 10 8 10 11 12 12 12 11 11 11 10 10 10 9 8 8 7 6 6 7 5 6 7 8
6 9 14 14 17 20 20 15 7 7 9 9 14 13 14 16 15 16 18 22 19 14 18 16 15 20 24 22 12 16 13 13 10 8 5 4 4 5 5 7 8 8 8 7 8 7 6 9 12 10 7 9 9 12 9 8 8 9 9 9 10 10 12 10 11 12 12 12 12 12 11 10 9 8 9 8 9 8 7 8 7 8 8 8 7 6
5 10 12 14 17 17 17 18 9 12 8 5 8 12 14 16 19 22 22 24 23 19 16 17 24 24 20 22 12 10 6 11 13 11 5 2 6 6 6 8 9 9 10 11 8 8 8 10 10 9 7 10 13 12 9 9 9 10 11 11 11 11 11 10 11 12 12 12 12 10 11 10 8 8 8 9 9 9 8 8 7 8 9 9 8 6
4 6 9 6 7 14 21 19 13 12 14 15 6 5 9 13 19 22 21 18 17 19 18 21 24 23 20 17 13 11 4 6 7 9 10 9 10 10 9 10 11 12 12 11 7 9 10 10 9 8 9 13 13 11 9 9 8 8 10 10 11 11 11 11 11 11 12 12 11 10 10 9 9 9 9 9 9 8 8 8 7 8 7 6 7 9
7 5 3 5 8 12 17 18 20 11 7 9 12 10 13 16 18 17 14 13 15 18 19 15 17 20 20 3 13 14 7 10 12 11 11 9 10 11 12 12 13 13 13 11 12 13 14 14 10 10 12 12 9 8 9 8 8 8 11 10 11 10 10 11 11 12 12 11 10 10 10 9 9 9 9 9 9 7 6 7 6 7 7 6 8 7
9 6 7 6 11 12 20 14 8 6 3 7 15 20 23 21 13 5 11 16 19 19 12 12 17 18 18 8 9 14 10 11 12 11 12 15 13 12 15 15 17 18 17 18 19 20 21 16 10 11 10 9 8 9 9 8 8 11 10 10 10 9 10 11 12 11 11 11 10 10 10 9 9 8 8 8 6 7 8 7 6 6 7 9 7 5
7 9 7 5 9 8 16 7 6 6 13 16 16 24 21 19 17 20 17 21 21 13 13 14 15 17 16 20 19 10 7 12 12 15 16 13 12 15 16 14 18 16 20 21 21 20 16 9 8 9 10 10 8 7 6 8 10 8 7 8 8 11 11 11 11 11 11 10 9 9 9 9 8 7 7 7 6 8 7 6 8 7 5 6 7 7
6 8 7 5 4 8 8 1 6 15 14 10 16 10 12 13 16 21 26 24 19 15 14 16 20 21 26 22 19 20 13 10 12 14 12 14 16 15 17 16 15 16 21 23 19 14 12 11 11 10 9 9 6 4 5 6 8 6 7 8 9 10 10 10 11 10 10 9 9 9 9 9 9 7 6 6 7 6 6 7 6 7 6 7 8 9
4 8 4 4 3 1 4 8 10 9 3 3 8 12 8 14 20 21 22 22 22 19 17 19 25 27 26 25 21 14 19 17 13 12 15 15 13 12 15 17 17 19 18 14 13 15 14 13 12 10 8 1 4 5 6 7 7 8 7 8 9 9 10 10 10 10 9 9 9 10 10 10 9 8 6 6 6 7 7 7 8 9 6 7 5 5
15 8 6 6 6 10 7 11 15 5 8 6 8 7 10 12 13 15 15 18 19 18 20 22 26 25 24 23 21 19 13 7 14 19 17 14 19 18 18 15 20 19 16 14 12 13 9 5 3 2 1 2 3 4 5 5 6 7 7 8 8 8 9 10 10 10 9 10 10 10 10 10 9 7 8 7 8 9 8 9 7 7 5 6 5 5
14 16 8 10 7 11 10 10 7 10 14 11 19 18 11 12 11 9 12 14 12 15 20 21 24 26 26 22 20 11 4 9 12 16 23 16 18 21 20 16 18 16 15 11 4 3 2 2 1 1 1 3 3 3 4 6 7 7 7 8 8 9 9 10 10 9 10 10 10 10 10 9 7 9 9 9 10 9 6 4 4 6 5 6 7 6
15 15 11 14 4 9 10 10 10 10 8 7 15 14 6 10 9 6 7 14 14 21 19 16 18 22 23 18 18 5 4 7 14 19 23 3 13 13 15 17 17 14 10 6 6 5 4 3 2 2 3 3 5 4 6 7 9 8 7 8 8 9 9 9 9 9 9 8 8 8 6 8 8 8 8 8 8 8 9 8 7 7 6 6 6 6
16 11 9 14 11 12 10 11 11 5 9 10 12 7 9 8 10 8 11 10 16 26 13 10 19 19 16 18 5 8 11 12 16 18 11 4 5 8 11 13 10 6 5 2 1 2 1 4 5 4 5 6 6 7 7 8 8 6 8 8 8 9 9 9 9 8 8 8 6 6 7 6 9 9 9 9 8 7 7 6 7 7 7 6 5 6
12 12 13 19 11 14 17 9 6 8 2 4 8 5 8 12 14 12 16 10 10 6 7 14 16 17 16 15 10 10 14 18 18 15 4 2 2 1 1 3 2 2 2 3 2 3 3 3 4 5 5 4 6 7 7 7 8 7 7 8 8 7 7 7 7 8 8 8 8 6 6 6 7 9 8 8 8 7 7 6 8 8 8 7 6 7
7 7 7 13 14 11 11 15 13 8 5 5 11 9 12 9 12 14 10 3 2 6 7 10 14 15 15 16 12 14 16 17 19 14 5 4 3 2 2 2 3 2 3 2 3 4 4 4 4 5 5 4 6 6 7 5 6 7 8 7 7 7 6 7 8 8 7 6 6 6 7 7 6 6 6 7 8 8 7 6 7 8 8 6 6 9
6 9 9 12 10 11 8 13 11 16 3 15 5 4 4 10 10 9 2 1 2 2 5 6 8 11 12 12 14 16 17 16 13 11 7 4 4 5 4 5 5 5 5 5 4 3 5 6 5 5 6 5 6 6 5 7 7 6 6 5 6 6 7 7 8 8 7 7 7 8 7 7 8 8 6 7 8 10 7 7 6 7 7 8 7 7
5 9 2 7 8 9 11 12 6 1 4 5 6 11 7 14 2 5 4 3 1 1 2 3 6 9 9 11 13 14 16 17 10 5 3 3 2 2 2 2 2 3 4 3 4 6 5 6 6 6 6 5 5 4 4 6 7 6 6 6 6 6 5 6 6 7 8 7 7 7 7 7 7 6 6 8 7 7 8 7 6 6 6 6 7 7
9 11 4 10 4 9 3 2 1 3 5 4 5 6 6 9 9 3 4 4 6 5 3 2 8 8 7 7 8 8 8 9 11 5 7 8 5 5 6 6 5 5 5 6 6 5 4 7 9 8 7 6 5 4 3 3 7 7 7 6 6 6 7 7 8 8 7 7 7 7 7 7 6 7 7 7 8 9 8 8 8 7 6 6 6 6
1 2 3 1 5 5 5 8 7 8 8 9 6 7 11 14 11 3 4 7 10 10 4 6 5 5 3 0 4 8 8 8 6 6 6 3 4 3 3 4 3 4 4 5 6 5 5 7 7 8 8 7 5 4 3 3 6 9 6 7 6 7 7 8 8 8 8 7 7 7 7 8 7 7 7 7 6 7 7 8 7 7 7 6 6 6
5 6 2 5 2 6 6 4 8 9 13 15 11 12 8 8 10 7 6 8 10 10 8 7 6 6 5 3 7 8 10 7 7 5 3 4 5 6 6 5 5 5 7 6 6 8 7 7 8 8 8 7 3 5 3 5 3 6 7 7 7 7 9 9 10 8 8 8 8 8 8 8 7 7 7 7 6 6 6 7 7 8 9 9 8 8
3 3 8 10 7 11 6 11 9 8 10 6 5 9 13 13 6 7 9 10 9 8 6 7 3 7 3 6 9 9 10 6 8 9 6 4 4 4 5 5 6 5 3 5 7 5 6 6 8 8 8 6 5 4 6 7 6 7 7 6 8 9 10 10 8 8 8 8 8 8 7 7 10 9 6 6 6 6 6 5 5 5 6 6 6 6
6 8 6 4 5 8 8 8 8 9 9 10 11 10 10 9 9 10 9 10 10 11 13 8 6 8 5 9 5 6 9 8 7 7 6 4 4 4 4 4 4 4 6 7 5 4 5 7 10 10 10 6 4 5 8 8 7 8 8 6 7 10 10 9 10 9 8 7 6 6 6 6 6 6 6 6 4 3 3 4 4 4 3 3 1 2
2 8 7 10 8 8 6 7 5 6 6 7 6 7 9 8 8 12 11 10 11 12 12 12 10 6 7 7 7 7 10 7 5 7 8 6 6 6 6 5 5 6 6 4 4 5 7 5 7 8 7 5 4 5 7 7 6 6 6 6 7 8 11 10 8 8 7 6 6 6 6 6 6 5 6 6 6 6 6 10 10 5 3 3 5 6
12 10 9 9 8 11 11 13 9 7 9 11 14 11 8 6 6 9 13 14 13 12 11 10 13 10 9 9 7 8 9 9 9 9 10 8 8 6 6 7 8 7 7 7 9 8 6 6 6 7 7 5 4 5 7 8 6 6 4 5 5 8 10 10 7 7 6 6 6 7 6 6 6 6 5 5 6 6 7 7 8 12 10 8 8 8
Wind_Direction
322 188 198 205 215 196 190 195 85 91 81 90 87 142 217 259 264 127 247 58 254 285 255 253 259 265 269 269 271 271 262 244 254 259 258 253 252 253 252 249 246 242 248 149 208 212 203 195 190 189 188 194 193 195 194 195 197 197 194 187 192 185 183 178 185 192 190 179 179 178 187 191 189 179 159 161 163 173 180 184 183 189 173 157 154 158
240 230 227 227 45 82 127 113 112 93 39 130 133 213 214 188 268 100 95 66 112 254 282 115 288 275 269 266 264 266 265 262 250 249 252 253 249 249 249 253 249 250 252 213 218 199 194 194 185 184 191 191 192 201 195 198 197 194 193 191 186 180 184 192 195 193 191 191 188 182 186 184 174 165 177 170 178 175 150 174 179 189 180 161 167 159
205 217 224 84 105 90 101 131 123 151 138 103 237 172 282 243 265 138 21 100 154 181 271 324 296 284 281 274 266 254 252 258 257 248 255 261 262 256 251 246 251 252 257 245 236 201 194 184 186 192 198 203 208 199 198 199 192 192 192 194 188 184 185 195 197 194 191 190 193 186 169 158 140 225 60 161 150 144 160 163 183 181 208 156 166 175
218 237 123 133 137 118 89 114 137 109 113 183 158 195 235 50 322 237 114 35 138 243 312 350 309 287 283 270 261 253 239 249 256 255 259 255 258 257 255 256 259 254 248 244 233 210 185 185 190 196 202 203 201 201 195 195 197 193 195 192 189 183 185 192 196 191 191 182 133 66 125 137 113 157 134 101 127 138 131 181 183 202 188 159 166 169
198 55 4 148 165 162 139 155 161 180 207 214 226 225 253 193 207 271 48 302 158 235 342 292 277 270 259 270 276 261 218 269 263 268 262 256 246 254 268 275 258 258 256 256 249 212 172 186 198 199 201 194 199 202 200 196 196 196 195 190 186 180 184 194 191 190 167 123 120 114 87 90 89 82 143 141 168 174 171 151 191 195 189 166 175 182
244 108 136 122 101 79 127 167 196 182 228 197 228 230 241 248 219 135 353 335 277 253 113 324 305 262 216 261 263 272 279 253 222 239 256 253 243 234 248 251 253 244 243 251 257 249 190 195 198 198 196 199 204 207 206 200 198 193 189 185 183 179 183 197 199 185 159 163 151 158 154 167 183 177 180 189 184 176 180 185 164 144 170 180 180 189
245 100 194 150 152 132 175 199 178 203 217 210 229 209 236 198 93 126 254 298 262 271 81 269 273 283 305 285 270 249 254 267 237 219 250 258 258 243 239 246 249 246 248 237 245 246 229 206 198 199 200 202 206 210 197 195 196 194 187 185 186 183 184 197 195 173 169 170 176 180 181 181 187 181 192 180 164 165 172 170 170 175 170 186 188 190
132 157 116 126 135 159 166 210 196 194 186 209 52 158 160 182 215 228 213 227 273 356 202 186 232 265 281 272 279 282 261 269 279 260 252 254 250 241 244 249 252 256 252 248 239 235 228 217 205 209 204 201 207 194 187 191 191 192 190 187 190 188 188 197 169 175 180 180 185 189 189 190 190 192 181 179 166 166 148 152 160 165 173 177 201 195
185 164 181 155 167 167 194 167 121 184 194 18 10 290 134 163 152 131 202 221 335 355 282 153 179 266 240 217 10 297 260 257 258 257 255 247 245 242 245 246 252 257 256 246 242 237 223 219 215 212 199 197 192 188 189 192 192 194 193 191 191 192 189 200 178 180 186 187 190 192 189 191 197 184 164 157 149 146 152 160 155 172 155 163 181 212
0 229 200 176 169 198 99 23 227 176 194 131 131 90 88 85 69 70 113 32 253 293 262 147 184 261 282 187 202 91 288 277 259 252 254 268 272 247 250 249 250 261 261 253 258 258 249 235 227 212 202 183 189 189 193 192 191 193 193 194 194 196 193 201 189 184 189 196 192 194 202 190 185 154 129 158 160 163 163 170 167 165 163 172 180 178
27 242 327 190 212 99 110 50 23 11 46 131 174 105 84 68 78 76 58 355 319 248 258 149 183 242 292 180 177 165 203 226 254 246 268 281 295 304 324 266 263 278 257 256 247 252 247 284 259 194 202 196 183 186 189 193 194 193 195 196 197 198 196 199 195 186 194 195 199 203 203 194 182 158 157 156 168 169 168 173 175 174 176 178 180 172
153 88 179 212 57 113 111 88 43 50 132 157 152 132 133 114 119 127 80 31 232 260 99 22 198 218 241 262 210 57 336 270 255 263 273 287 293 71 69 108 326 351 331 290 266 247 212 194 185 186 196 187 185 184 190 195 193 196 196 196 199 197 198 202 191 191 199 200 203 206 209 204 176 166 178 182 179 176 174 170 170 169 162 181 172 179
236 210 107 89 274 146 150 101 71 93 232 237 150 151 190 200 95 220 167 217 192 244 66 356 294 294 239 246 3 297 281 264 226 248 266 294 293 269 164 241 273 312 306 300 306 260 220 216 189 191 192 184 188 191 192 193 195 199 204 204 204 205 199 204 198 192 198 198 198 200 208 202 180 183 186 187 182 176 171 173 172 167 181 173 178 189
227 80 172 147 127 244 192 158 140 159 203 198 184 180 186 214 210 255 195 343 323 281 123 354 177 246 282 302 250 252 255 261 249 220 241 262 270 277 212 191 227 259 255 264 273 275 259 223 210 201 193 193 193 194 191 193 194 198 204 206 209 209 199 203 200 192 199 205 200 201 207 189 176 191 185 188 184 183 185 173 177 183 181 181 191 180
238 226 210 145 222 163 209 210 178 171 172 201 200 181 204 181 189 218 173 219 238 337 63 291 158 246 224 192 67 272 309 313 303 286 259 243 249 267 280 241 239 243 251 239 260 252 238 224 210 202 202 199 198 193 191 192 196 199 206 208 209 209 204 205 206 204 206 208 207 204 204 195 184 189 179 193 192 183 187 173 181 191 184 183 188 187
218 256 59 172 12 155 193 217 91 99 127 149 343 19 292 227 95 251 5 268 75 145 186 196 230 259 227 3 307 257 249 280 261 277 260 263 254 232 266 261 223 229 243 223 235 243 232 221 205 202 203 200 197 194 192 195 195 202 207 210 210 210 205 206 209 208 206 206 205 205 205 192 192 198 197 195 192 188 200 196 192 194 187 193 185 180
61 237 76 3 65 192 179 66 178 156 207 172 142 212 210 1 177 85 96 77 101 329 260 167 271 262 277 269 234 241 244 251 256 268 257 254 248 184 243 248 236 233 235 223 221 228 222 203 211 206 201 196 193 195 199 198 199 203 204 208 210 209 213 212 211 211 211 212 207 198 200 193 186 192 192 196 195 186 189 188 192 197 190 175 177 185
219 167 29 145 199 151 52 307 62 28 8 107 213 204 83 33 6 184 236 129 203 238 258 137 235 267 296 281 69 88 245 254 260 263 260 257 276 268 259 245 193 231 237 229 230 233 228 221 214 205 204 201 197 197 199 200 199 203 206 207 212 211 212 214 211 211 213 213 213 198 194 188 189 193 191 186 180 183 181 191 188 189 187 195 182 159
155 252 137 348 26 75 19 182 153 66 358 308 275 70 183 197 208 175 241 234 212 223 257 225 232 256 237 255 306 280 204 239 245 243 252 274 269 265 265 266 156 217 245 226 225 222 215 212 210 203 202 199 202 201 200 198 197 198 206 212 215 211 209 213 214 215 214 216 212 187 191 194 193 195 193 181 172 181 186 189 184 189 198 169 145 145
198 231 201 350 176 70 155 178 203 176 99 72 135 148 17 322 236 173 206 310 243 251 174 257 192 259 196 235 218 253 250 236 244 250 255 259 266 255 273 338 224 206 219 225 220 219 213 208 204 197 195 196 197 198 199 198 197 202 206 209 213 209 207 211 217 215 215 214 214 187 188 188 185 187 180 181 183 185 189 190 189 193 187 188 161 161
194 131 250 98 308 177 181 201 216 162 170 177 199 194 171 211 2 332 342 209 220 238 230 275 282 259 244 173 187 231 242 239 235 242 256 250 247 321 297 276 273 255 233 225 227 222 217 208 195 193 190 192 192 198 198 203 205 208 208 211 207 205 202 207 216 210 208 208 199 180 190 188 185 186 190 187 182 187 187 177 182 181 177 128 169 162
196 167 224 129 169 212 217 157 255 190 183 182 185 196 195 168 180 192 234 100 240 231 225 175 255 275 273 117 200 225 237 243 220 217 230 244 245 295 285 241 243 262 250 238 235 235 230 196 190 188 187 186 190 196 200 202 204 210 214 212 208 204 208 208 213 197 199 201 188 193 200 199 196 189 179 166 175 187 181 184 190 172 141 183 175 165
194 148 201 185 201 204 104 20 348 334 343 330 247 223 201 205 193 188 227 173 55 242 20 271 315 262 256 167 185 223 189 243 295 245 253 267 285 284 282 273 250 246 252 234 234 239 212 193 195 203 197 199 200 199 195 197 204 211 212 212 209 205 207 203 202 197 202 209 194 197 202 195 190 184 176 178 182 185 177 177 175 160 170 178 174 171
83 182 196 245 62 30 99 66 67 13 58 255 250 217 149 215 202 218 242 146 200 138 220 215 229 269 259 319 311 351 291 293 256 248 254 267 267 291 277 285 288 266 252 229 202 195 191 200 221 205 201 201 200 200 197 195 200 209 213 213 211 209 203 201 199 194 194 198 188 194 195 189 186 185 184 187 186 186 190 183 168 166 171 173 168 171
170 221 214 219 222 154 203 159 237 115 208 226 228 173 213 205 184 111 76 95 244 195 217 201 239 246 155 160 60 241 272 267 258 250 228 262 280 260 246 248 258 290 292 296 311 270 223 230 225 225 219 214 204 196 193 192 197 203 212 211 214 209 202 199 196 188 190 189 187 189 196 196 187 187 187 190 186 182 184 180 176 166 182 173 166 170
177 189 180 205 214 218 206 201 213 197 199 204 246 216 197 198 175 134 220 192 237 222 219 223 247 257 233 129 190 209 242 268 266 257 242 243 261 293 289 226 209 230 254 291 282 249 246 234 228 235 225 222 229 212 187 188 194 203 209 213 213 209 198 198 189 184 188 190 191 191 193 193 189 192 189 187 181 175 178 171 170 174 185 177 159 161
169 292 221 208 220 233 241 252 39 104 128 189 220 200 194 204 192 195 206 213 219 231 236 216 235 257 258 218 179 217 195 228 251 230 252 258 244 218 240 292 296 238 236 228 222 232 238 233 233 228 222 223 225 231 198 183 192 199 204 210 212 210 199 194 183 186 190 192 194 190 191 189 190 189 187 182 180 179 173 174 173 175 177 171 154 157
113 207 219 226 233 245 254 257 189 168 179 206 208 199 194 187 193 199 208 224 219 239 251 236 223 242 259 254 233 219 205 249 264 271 252 259 270 285 307 298 294 284 262 251 261 237 223 237 241 233 229 226 228 227 217 194 197 196 200 203 202 201 199 190 185 189 193 191 195 195 189 188 186 188 189 184 176 177 171 159 159 170 157 148 159 172
162 213 216 213 233 240 246 254 143 222 216 209 209 195 192 193 188 203 219 229 225 221 239 247 236 236 251 259 247 243 235 243 244 256 265 295 314 316 305 297 297 278 262 249 253 265 266 248 240 235 224 229 226 224 212 201 204 202 202 203 200 198 202 192 188 192 193 193 197 196 185 180 177 178 181 173 176 168 164 175 152 161 164 172 180 173
169 229 217 208 232 243 251 249 201 219 231 237 231 219 203 189 197 205 217 221 222 229 239 255 259 250 252 262 251 254 225 225 235 235 245 246 244 234 216 222 223 229 235 238 234 238 235 240 240 230 219 225 223 218 208 203 205 203 199 200 199 198 199 188 192 193 193 196 197 189 181 178 163 172 175 174 175 173 164 172 153 164 170 174 172 161
199 232 215 176 221 244 247 247 235 219 234 244 216 224 222 214 209 209 216 223 225 237 240 246 255 265 258 258 282 264 189 231 235 226 229 227 232 237 246 254 257 262 267 262 250 244 234 231 234 230 220 225 217 208 202 205 204 199 200 200 197 198 194 189 193 196 196 199 193 181 176 176 172 170 178 178 173 167 157 159 155 169 172 164 171 172
175 245 139 160 216 241 244 241 238 234 221 235 237 213 217 214 221 222 222 221 216 225 230 245 259 257 264 172 251 263 204 216 219 218 225 234 230 235 241 245 251 254 254 247 242 239 234 224 219 214 220 222 217 206 201 200 194 192 206 197 195 193 184 189 197 199 201 198 187 180 177 177 164 168 173 166 169 163 156 169 158 168 169 162 169 176
178 192 210 182 219 231 243 236 227 129 164 243 236 229 221 221 212 210 229 233 224 220 224 226 236 245 260 247 244 249 229 224 228 227 231 230 233 239 242 243 251 254 255 256 256 258 261 259 232 220 227 222 218 209 207 186 185 207 202 190 191 178 183 190 197 199 199 196 186 176 176 170 168 166 160 167 161 167 168 167 155 157 165 177 173 154
163 192 213 177 225 238 247 245 129 164 216 223 230 228 223 227 218 230 229 225 225 204 225 232 248 258 260 260 254 256 183 224 220 224 223 234 237 239 245 248 251 251 255 254 252 254 258 259 244 228 230 236 230 212 188 184 202 204 183 178 174 180 188 187 196 197 198 190 179 177 169 165 167 174 164 160 156 165 160 151 169 167 156 146 154 166
191 193 215 167 207 222 249 204 220 225 228 230 243 249 234 232 224 225 234 236 233 212 219 250 261 261 259 258 258 256 253 242 232 239 240 233 244 249 253 251 243 241 247 250 253 255 248 243 254 249 235 228 214 179 175 196 203 188 179 180 180 184 181 184 187 192 192 185 180 171 165 160 164 164 162 160 159 150 153 160 154 156 159 162 165 169
183 206 199 215 198 261 246 217 242 232 210 324 271 252 240 226 227 232 244 243 236 230 225 232 239 245 250 256 256 256 262 270 282 254 242 242 236 241 244 244 248 248 248 249 248 250 250 247 243 243 243 150 174 188 190 195 180 180 185 175 177 175 180 180 184 186 179 172 172 169 167 159 161 165 156 147 145 156 158 160 166 167 153 156 147 147
204 199 192 236 182 227 206 218 237 321 299 255 253 230 178 200 210 205 232 242 230 219 223 229 239 244 248 252 258 264 266 293 278 274 247 202 232 234 239 240 247 253 254 253 239 242 252 286 288 262 190 162 188 179 190 171 162 170 160 166 175 166 172 175 182 184 174 176 169 169 167 163 160 154 155 151 153 168 165 167 158 151 142 138 135 133
198 212 179 224 215 207 228 240 239 230 236 235 240 248 226 212 215 198 217 252 252 223 219 223 234 244 248 254 260 267 76 264 269 268 267 237 224 232 239 245 250 254 255 257 253 254 186 214 110 103 181 163 160 167 151 152 159 158 159 166 163 165 172 179 184 178 171 175 169 165 160 160 153 161 161 159 170 168 150 121 105 137 139 139 134 131
204 207 197 210 202 193 214 231 233 237 235 223 253 252 177 180 181 146 202 238 245 250 229 217 231 239 249 255 258 115 181 241 250 259 270 210 218 221 229 238 241 242 244 221 219 210 200 183 162 134 141 159 170 166 156 154 150 150 159 160 164 170 172 179 177 171 170 168 152 157 151 156 158 158 155 160 162 153 151 153 151 131 138 142 137 134
202 209 208 221 210 215 227 231 228 208 243 216 242 239 168 150 131 128 219 225 237 245 238 198 225 236 239 245 208 162 213 233 249 256 273 167 217 203 215 231 232 201 202 162 193 228 154 136 131 155 170 181 171 152 153 149 153 154 155 161 163 171 178 178 172 166 157 145 142 146 152 152 156 157 159 158 149 146 143 123 124 140 137 138 127 131
202 209 206 220 213 220 222 246 261 249 233 233 243 158 165 154 149 191 217 225 235 260 213 204 219 222 230 237 181 219 218 226 237 248 88 159 109 179 33 21 22 29 163 168 156 144 146 158 173 169 169 149 142 148 150 148 143 154 153 154 163 175 173 160 147 142 142 144 143 141 140 143 152 153 152 149 143 135 129 135 135 137 142 141 140 141
209 209 212 213 219 218 220 232 237 267 222 195 240 178 152 132 219 213 229 221 138 237 223 204 204 213 220 223 206 217 233 233 239 248 213 193 199 88 124 119 117 97 52 69 120 148 135 130 118 110 109 125 141 146 149 142 138 146 146 156 168 163 141 134 138 138 132 132 133 124 134 143 125 132 129 134 127 122 129 129 140 146 145 142 131 144
201 209 195 204 214 224 223 237 237 241 145 207 150 42 235 222 222 240 250 294 225 266 224 238 207 218 210 227 220 220 232 241 232 230 235 149 179 180 174 173 170 163 154 148 156 164 150 137 137 130 130 134 137 141 142 139 129 135 145 152 142 129 132 133 131 129 127 121 117 129 132 130 134 131 129 135 139 138 125 131 125 131 123 131 133 134
157 247 216 227 196 227 207 218 222 90 9 322 180 234 167 218 25 14 13 268 16 220 290 218 239 235 230 220 224 225 230 238 244 238 174 195 175 121 144 154 144 136 144 138 149 156 147 128 124 124 121 125 130 129 131 138 130 141 143 131 129 126 119 118 121 116 117 120 121 125 126 128 126 123 126 130 125 121 118 122 119 115 125 125 133 137
159 214 209 245 189 223 233 276 11 231 256 309 319 309 294 295 307 352 318 275 309 292 179 235 255 243 229 263 288 295 286 258 246 225 209 224 175 180 185 186 179 173 162 153 146 146 142 141 137 127 119 116 119 122 127 132 130 133 124 125 125 123 124 114 120 121 117 120 128 125 122 118 120 119 115 118 122 125 126 120 123 127 133 139 143 146
268 139 74 39 273 247 225 237 262 286 280 283 267 244 266 276 270 199 251 279 267 265 219 250 276 305 345 319 253 261 240 284 263 233 217 191 171 173 151 149 144 133 128 121 127 140 130 117 113 118 116 108 101 113 105 119 133 127 127 124 128 119 113 122 119 112 112 111 109 106 110 107 107 109 112 120 127 127 137 139 141 141 151 155 161 165
253 230 173 243 114 286 277 185 225 262 286 275 265 283 275 234 259 265 278 264 265 277 267 249 268 281 249 199 217 242 252 221 234 242 207 196 190 183 175 168 161 162 158 154 146 138 135 131 120 121 119 110 101 101 97 96 85 107 119 121 123 122 126 127 123 113 119 120 121 120 118 121 127 129 128 126 127 127 136 147 149 156 166 174 171 172
279 9 266 240 222 229 241 249 232 218 243 270 259 268 278 283 264 243 234 254 269 278 262 278 294 269 234 242 227 226 244 206 193 206 197 205 185 161 169 165 156 151 142 134 144 146 131 132 128 127 118 112 110 102 98 99 107 116 119 126 132 134 129 126 127 128 128 127 129 135 134 127 131 132 137 135 131 137 140 148 151 152 160 169 162 159
263 342 277 308 299 276 271 300 297 255 263 264 255 241 248 253 277 279 259 253 263 277 278 259 209 245 220 241 251 232 241 231 209 182 161 159 166 176 173 160 152 143 141 141 144 150 142 142 128 118 113 114 115 110 101 97 102 118 122 127 137 136 131 125 125 122 114 118 121 122 120 124 137 133 129 126 105 73 84 140 156 136 97 37 86 144
189 246 263 284 291 290 288 310 337 302 295 280 264 254 249 235 227 254 263 260 251 252 254 261 253 221 240 246 234 213 221 209 181 163 168 170 173 167 157 151 145 137 132 110 103 100 95 80 104 116 107 106 106 99 94 95 86 79 88 116 128 131 127 128 118 120 127 126 125 125 129 128 129 121 123 122 122 114 84 57 60 55 110 113 77 63
245 251 258 250 252 271 277 270 261 252 270 271 279 276 265 249 225 244 255 254 253 237 243 247 262 252 228 232 220 219 217 190 187 170 172 174 173 161 161 156 154 154 142 139 124 117 109 115 110 101 99 107 109 98 90 92 71 74 85 108 125 128 130 134 125 122 125 131 139 145 138 131 133 137 127 128 126 121 115 105 78 76 83 99 105 96